Regional Weather Roundup
Issued by NWS Northern Indiana

Home | Current Version | Previous Version | Text Only | Print | Product List | Glossary Off
Versions: 1 2 3 4 5 6 7 8 9 10 11 12 13 14 15 16 17 18 19 20 21 22 23 24 25 26 27 28 29 30 31 32 33 34 35 36 37 38 39 40 41 42 43 44 45 46 47 48 49 50

000
ASUS43 KIWX 291510
RWRIWX

KIWX WEATHER ROUNDUP
NATIONAL WEATHER SERVICE NORTHERN INDIANA
1100 AM EDT SAT APR 29 2017

NOTE: "FAIR" INDICATES FEW OR NO CLOUDS BELOW 12,000 FEET WITH NO
SIGNIFICANT WEATHER AND/OR OBSTRUCTIONS TO VISIBILITY.

* THESE STATIONS ARE NOT UNDER NWS QUALITY CONTROL. THEY ALSO MAY NOT
  REPORT WEATHER SUCH AS PRECIPITATION OR FOG.

INZ001>027-291600-
NORTHERN INDIANA

CITY           SKY/WX    TMP DP  RH WIND       PRES   REMARKS
GARY*          CLOUDY    46  37  71 N17G35    30.13F
VALPARAISO     CLOUDY    49  43  80 N10       30.10S
MICHIGAN CITY* CLOUDY    46  41  81 N12       30.12S
LAPORTE*       CLOUDY    51  44  77 NE10      30.11R
KNOX*          CLOUDY    52  28  40 NE8       30.09R
SOUTH BEND     CLOUDY    51  44  77 NE9       30.11S
ELKHART*       MOSUNNY   52  41  66 NE10      30.11R
GOSHEN         CLOUDY    52  42  69 E12       30.11R
MONTICELLO*    LGT RAIN  51  50  95 NE8       30.07R
LOGANSPORT*    LGT RAIN  52  50  93 NE5       30.10R
ROCHESTER*     RAIN      54  46  76 NE13      30.10R
WARSAW*        CLOUDY    50  45  81 NE10      30.09F
ANGOLA*        CLOUDY    48  36  61 E7        30.12R
FORT WAYNE     CLOUDY    54  51  90 NE13      30.10F
HUNTINGTON*    CLOUDY    53  52  96 E8        30.09F
PERU/GRISSOM   LGT RAIN  54  54 100 NE10      30.07R
MARION*        RAIN      54  54 100 E9        30.10R

$$
INZ028>050-291600-
CENTRAL INDIANA

CITY           SKY/WX    TMP DP  RH WIND       PRES   REMARKS
LAFAYETTE      RAIN      52  51  97 E12       30.05F FOG
KOKOMO*        RAIN      54  53  97 NE13      30.09R FOG
MUNCIE*        RAIN      58  56  93 CALM      30.11R FOG
INDIANAPOLIS   TSTM      58  57  97 N8        30.09R FOG

$$
MIZ043>046-050>051-056>058-064>065-071>073-077>080-291600-
SOUTHWEST LOWER MICHIGAN

CITY           SKY/WX    TMP DP  RH WIND       PRES   REMARKS
BATTLE CREEK   CLOUDY    50  39  66 NE16      30.14R
BENTON HARBOR  CLOUDY    52  39  61 NE8       30.12S
COLDWATER*     CLOUDY    50  42  74 NE8       30.13R
HILLSDALE*     CLOUDY    46  37  71 NE8       30.13R
HOLLAND        CLOUDY    50  36  58 NE14G22   30.16F
GRAND RAPIDS   CLOUDY    49  39  68 N14       30.16F
KALAMAZOO      CLOUDY    52  40  63 N12       30.14R
STURGIS*       CLOUDY    51  42  72 E13       30.11S
THREE RIVERS*  PTSUNNY   51  43  74 NE9       30.13R

$$
OHZ001>008-015>018-024>025-291600-
NORTHWEST OHIO

CITY           SKY/WX    TMP DP  RH WIND       PRES   REMARKS
WAUSEON*       LGT RAIN  48  45  87 NE14      30.15R
DEFIANCE       CLOUDY    49  47  93 N13       30.13R
FINDLAY        LGT RAIN  50  45  83 NE20G29   30.12R
TOLEDO EXPRESS CLOUDY    47  44  90 NE10      30.15R
TOLEDO METCALF CLOUDY    48  42  80 NE14G21   30.17R
LIMA           LGT RAIN  56  56 100 NE9       30.11R

$$
AND FOR LAKE MICHIGAN COASTAL AND OPEN LAKE BUOY OBSERVATIONS

STATION/POSITION TEMP    WIND        PRES    VSBY  WAVE
                 AIR SEA DIR/SP/G                  HT/PER
                 (F)     (DEG/KT/KT) (MB)    (MI)  (FT/S)
CALUMET HARBOR    43     360/ 18/ 25 1019.5F
MICHIGAN CITY     43     360/ 25/ 28   N/A
BURNS HARBOR      44      20/ 22/ 26 1020.0R
SOUTH LAKE BUOY   40 41   10/ 19/ 21 1022.9          3/ 5
4 MI NW BRIDGMAN  46 48   50/ 17/ 23 1020.7          4/ 5
MICHIGAN CITY     43 46                N/A           5/ 5

$$
&&




USA.gov is the U.S. government's official web portal to all federal, state and local government web resources and services.